Date String (YYYY-MM-DD hh:mm:ss) UTC,Instrument flags,Ambient pressure (hPa),Sample flow (lpm),Bypass flow (lpm),Sample temperature (°C),Ambient temperature (°C),ASC tube jacket temperature (°C),LED temperature (°C),Box temperature (°C),Sample RH (%),Span deviation,Mass concentration (μg/m³),Mass concentration (μg/m³),Mass concentration (μg/m³)
DateTimeUTC,F1_M11,P_M11,Q1_M11,Q2_M11,T1_M11,T2_M11,T3_M11,T4_M11,T5_M11,U1_M11,ZSPAN_M11,X2_M11,X0_M11,X1_M11
2021-10-25 22:00:00,,0818.0,5.01,0.00,30.1,26.5,00.0,39.3,31.6,13.6,0000.0,0005.66,0022.19,0003.91
2021-10-25 22:01:00,,0818.0,5.01,0.00,30.1,27.0,00.0,39.3,31.6,13.7,0000.0,0005.73,0023.47,0003.95
2021-10-25 22:02:00,,0818.0,4.99,0.00,30.0,27.4,00.0,39.2,31.6,13.7,0000.0,0005.83,0024.10,0003.99
2021-10-25 22:03:00,,0818.0,5.00,0.00,30.0,27.9,00.0,39.2,31.7,13.7,0000.0,0005.88,0024.69,0004.02
2021-10-25 22:04:00,,0818.0,5.01,0.00,30.0,28.2,00.0,39.2,31.8,13.7,0000.0,0005.87,0024.86,0004.05
2021-10-25 22:05:00,,0818.0,5.00,0.00,30.1,28.4,00.0,39.2,31.9,13.7,0000.0,0005.91,0024.60,0004.07
2021-10-25 22:06:00,,0818.0,4.99,0.00,30.1,28.7,00.0,39.2,31.9,13.7,0000.0,0005.96,0025.08,0004.09
2021-10-25 22:07:00,,0818.0,5.01,0.00,30.1,28.8,00.0,39.2,31.9,13.6,0000.0,0005.99,0025.27,0004.14
2021-10-25 22:08:00,,0818.0,5.00,0.00,30.2,29.0,00.0,39.2,32.0,13.6,0000.0,0006.02,0025.03,0004.17
2021-10-25 22:09:00,,0817.9,4.99,0.00,30.2,29.2,00.0,39.2,32.0,13.6,0000.0,0006.03,0025.58,0004.18
2021-10-25 22:10:00,,0818.0,5.01,0.00,30.2,29.3,00.0,39.2,32.1,13.6,0000.0,0006.01,0025.32,0004.18
2021-10-25 22:11:00,,0818.0,5.00,0.00,30.3,29.4,00.0,39.2,32.1,13.5,0000.0,0006.02,0024.54,0004.19
2021-10-25 22:12:00,,0818.1,4.99,0.00,30.3,29.5,00.0,39.3,32.2,13.5,0000.0,0005.99,0023.11,0004.19
2021-10-25 22:13:00,,0818.1,5.00,0.00,30.4,29.5,00.0,39.3,32.3,13.4,0000.0,0005.90,0023.15,0004.17
2021-10-25 22:14:00,,0818.1,5.01,0.00,30.4,29.6,00.0,39.3,32.3,13.4,0000.0,0005.84,0023.47,0004.16
2021-10-25 22:15:00,,0818.1,4.99,0.00,30.5,29.7,00.0,39.3,32.3,13.2,0000.0,0005.83,0023.62,0004.15
2021-10-25 22:16:00,,0818.1,5.00,0.00,30.5,29.7,00.0,39.4,32.4,13.2,0000.0,0005.83,0023.39,0004.13
2021-10-25 22:17:00,,0818.1,5.00,0.00,30.5,28.9,00.0,39.4,32.2,13.2,0000.0,0005.86,0023.19,0004.12
2021-10-25 22:18:00,,0818.0,5.01,0.00,30.4,27.1,00.0,39.4,31.9,13.3,0000.0,0005.77,0022.85,0004.11
2021-10-25 22:19:00,,0818.0,4.99,0.00,30.3,26.9,00.0,39.4,31.8,13.3,0000.0,0005.71,0022.42,0004.08
2021-10-25 22:20:00,,0818.0,5.00,0.00,30.2,27.3,00.0,39.3,31.8,13.3,0000.0,0005.64,0021.25,0004.05
2021-10-25 22:21:00,,0818.0,5.00,0.00,30.2,27.7,00.0,39.3,31.8,13.3,0000.0,0005.55,0021.43,0004.02
2021-10-25 22:22:00,,0818.0,5.01,0.00,30.2,28.1,00.0,39.3,31.9,13.3,0000.0,0005.46,0021.59,0003.98
2021-10-25 22:23:00,,0818.1,4.99,0.00,30.2,28.4,00.0,39.3,31.9,13.3,0000.0,0005.40,0023.73,0003.95
2021-10-25 22:24:00,,0818.0,5.00,0.00,30.2,28.6,00.0,39.3,32.0,13.3,0000.0,0005.38,0023.42,0003.93
2021-10-25 22:25:00,,0818.0,5.00,0.00,30.3,28.9,00.0,39.3,32.0,13.3,0000.0,0005.36,0022.31,0003.91
2021-10-25 22:26:00,,0818.0,4.98,0.00,30.3,29.0,00.0,39.3,32.1,13.3,0000.0,0005.36,0021.82,0003.88
2021-10-25 22:27:00,,0818.0,5.01,0.00,30.3,29.2,00.0,39.3,32.1,13.3,0000.0,0005.36,0022.96,0003.88
2021-10-25 22:28:00,,0818.1,5.01,0.00,30.4,29.3,00.0,39.3,32.2,13.3,0000.0,0005.29,0023.54,0003.86
2021-10-25 22:29:00,,0818.2,5.00,0.00,30.4,29.4,00.0,39.3,32.2,13.3,0000.0,0005.29,0024.00,0003.85
2021-10-25 22:30:00,,0818.2,4.99,0.00,30.4,29.5,00.0,39.3,32.3,13.2,0000.0,0005.37,0024.31,0003.85
2021-10-25 22:31:00,,0818.1,4.99,0.00,30.5,29.6,00.0,39.4,32.3,13.2,0000.0,0005.41,0024.40,0003.87
2021-10-25 22:32:00,,0818.0,5.01,0.00,30.5,29.5,00.0,39.4,32.3,13.2,0000.0,0005.51,0024.36,0003.89
2021-10-25 22:33:00,,0818.0,5.01,0.00,30.5,27.6,00.0,39.4,32.0,13.1,0000.0,0005.64,0025.96,0003.93
2021-10-25 22:34:00,,0818.0,4.99,0.00,30.3,25.9,00.0,39.4,31.6,13.3,0000.0,0005.72,0025.59,0003.99
2021-10-25 22:35:00,,0818.0,5.00,0.00,30.2,26.0,00.0,39.3,31.6,13.4,0000.0,0005.83,0025.97,0004.03
2021-10-25 22:36:00,,0817.9,5.01,0.00,30.1,26.5,00.0,39.3,31.5,13.6,0000.0,0005.94,0026.41,0004.10
2021-10-25 22:37:00,,0817.9,4.99,0.00,30.0,27.0,00.0,39.2,31.6,13.7,0000.0,0006.04,0026.71,0004.17
2021-10-25 22:38:00,,0817.9,5.00,0.00,30.0,27.5,00.0,39.2,31.7,13.7,0000.0,0006.10,0025.54,0004.22
2021-10-25 22:39:00,,0818.0,4.99,0.00,30.0,27.9,00.0,39.2,31.7,13.6,0000.0,0006.11,0024.05,0004.28
2021-10-25 22:40:00,,0818.0,5.01,0.00,30.0,28.2,00.0,39.1,31.8,13.7,0000.0,0006.21,0023.92,0004.37
2021-10-25 22:41:00,,0818.0,4.99,0.00,30.1,28.5,00.0,39.1,31.8,13.7,0000.0,0006.30,0023.82,0004.47
2021-10-25 22:42:00,,0818.1,5.00,0.00,30.1,28.7,00.0,39.1,31.9,13.7,0000.0,0006.41,0023.43,0004.58
2021-10-25 22:43:00,,0818.2,5.01,0.00,30.1,28.9,00.0,39.1,32.0,13.7,0000.0,0006.54,0023.42,0004.70
2021-10-25 22:44:00,,0818.2,4.99,0.00,30.2,29.1,00.0,39.2,32.0,13.7,0000.0,0006.66,0022.19,0004.81
2021-10-25 22:45:00,,0818.1,5.00,0.00,30.2,29.2,00.0,39.2,32.1,13.5,0000.0,0006.75,0020.67,0004.89
2021-10-25 22:46:00,,0818.1,5.00,0.00,30.2,29.3,00.0,39.2,32.1,13.5,0000.0,0006.79,0020.57,0004.97
2021-10-25 22:47:00,,0818.0,5.02,0.00,30.3,29.4,00.0,39.2,32.1,13.5,0000.0,0006.84,0020.73,0005.02
2021-10-25 22:48:00,,0818.0,5.00,0.00,30.3,29.5,00.0,39.2,32.2,13.5,0000.0,0006.87,0021.74,0005.07
2021-10-25 22:49:00,,0818.0,4.99,0.00,30.4,29.6,00.0,39.3,32.2,13.5,0000.0,0006.90,0022.18,0005.14
2021-10-25 22:50:00,,0818.0,5.00,0.00,30.4,29.6,00.0,39.3,32.3,13.4,0000.0,0007.00,0023.47,0005.20
2021-10-25 22:51:00,,0818.0,5.01,0.00,30.4,28.1,00.0,39.3,32.1,13.4,0000.0,0007.00,0023.49,0005.21
2021-10-25 22:52:00,,0818.0,5.00,0.00,30.3,26.1,00.0,39.3,31.7,13.5,0000.0,0007.01,0024.11,0005.21
2021-10-25 22:53:00,,0818.0,4.99,0.00,30.1,26.0,00.0,39.3,31.6,13.5,0000.0,0007.00,0024.92,0005.20
2021-10-25 22:54:00,,0817.9,5.01,0.00,30.1,26.5,00.0,39.2,31.5,13.6,0000.0,0007.04,0025.56,0005.21
2021-10-25 22:55:00,,0817.9,5.00,0.00,30.0,27.0,00.0,39.1,31.5,13.7,0000.0,0007.07,0026.51,0005.24
2021-10-25 22:56:00,,0817.9,5.01,0.00,30.0,27.4,00.0,39.1,31.6,13.7,0000.0,0007.04,0027.57,0005.26
2021-10-25 22:57:00,,0817.9,4.99,0.00,30.0,27.8,00.0,39.1,31.7,13.7,0000.0,0007.08,0027.53,0005.30
2021-10-25 22:58:00,,0817.9,5.00,0.00,30.0,28.2,00.0,39.1,31.7,13.7,0000.0,0007.06,0026.91,0005.31
2021-10-25 22:59:00,,0817.9,5.01,0.00,30.0,28.4,00.0,39.1,31.8,13.6,0000.0,0007.02,0026.66,0005.32
